Flag for Argentina Weather past 2 weeks in Comodoro Rivadavia, Chubut, Argentina

Now
82 °F

Scattered clouds.


Feels Like: 81 °F
Forecast: 65 / 83 °F
Wind: 15 mph from Northwest

Location: Comodoro Rivadavia Aerodrome

Current Time: Jan 26, 2015 at 2:04:02 PM

Latest Report: Jan 26, 2015 at 1:00 PM


Visibility: N/A

Pressure: 29.59 "Hg

Humidity: 35%

Dew point: 52 °F

Location of Comodoro RivadaviaLocation

Historic Weather in Comodoro Rivadavia — Graph

°F

Comodoro Rivadavia temperature yesterday

Maximum temperature yesterday: 68 °F (at 12:00 AM)
Minimum temperature yesterday: 57 °F (at 6:00 AM)
Average temperature yesterday: 64 °F

Past Weeks' High & Low Weather Summary

 TemperatureHumidityPressure
High95 °F (Jan 22, 6:00 PM)100% (Jan 18, 11:00 AM)30.27 "Hg (Jan 18, 11:00 AM)
Low48 °F (Jan 12, 7:00 AM)16% (Jan 15, 4:00 PM)29.45 "Hg (Jan 11, 6:00 PM)
Average66 °F50%29.87 "Hg
* Reported Jan 11 12:00 Noon — Jan 26 12:00 Noon, Comodoro Rivadavia, Weather by CustomWeather, © 2014

Note: Actual official high and low records may vary slightly from our data, if they occured in-between our weather recording intervals... More about our weather records

Advertising

Comodoro Rivadavia weather history for previous 24 hours

 ConditionsComfort  
Time TempWeatherWind HumidityBarometerVisibility
12:00 PM
Jan 26
82 °FPassing clouds.18 mph35%29.62 "HgN/A
11:00 AM79 °FPassing clouds.24 mph37%29.62 "HgN/A
10:00 AM75 °FSunny.25 mph41%29.62 "Hg10 mi
9:00 AM73 °FSunny.16 mph44%29.68 "Hg10 mi
8:00 AM70 °FSunny.20 mph46%29.65 "Hg10 mi
7:00 AM68 °FSunny.15 mph49%29.68 "Hg10 mi
6:00 AM70 °FPassing clouds.17 mph46%29.68 "HgN/A
5:00 AM68 °FPassing clouds.17 mph49%29.68 "HgN/A
4:00 AM68 °FPassing clouds.18 mph46%29.68 "HgN/A
3:00 AM70 °FClear.12 mph43%29.68 "Hg10 mi
2:00 AM70 °FClear.13 mph43%29.71 "Hg10 mi
1:00 AM70 °FClear.12 mph43%29.71 "Hg10 mi
12:00 AM63 °FClear.No wind56%29.71 "Hg10 mi
11:00 PM
Jan 25
61 °FClear.No wind77%29.71 "Hg10 mi
10:00 PM63 °FClear.No wind77%29.71 "Hg10 mi
9:00 PM64 °FClear.6 mph73%29.71 "Hg10 mi
8:00 PM68 °FSunny.13 mph56%29.71 "Hg10 mi
7:00 PM66 °FSunny.15 mph60%29.71 "Hg10 mi
6:00 PM68 °FPassing clouds.14 mph64%29.74 "HgN/A
5:00 PM66 °FPassing clouds.10 mph64%29.77 "HgN/A
4:00 PM64 °FPassing clouds.12 mph68%29.77 "HgN/A
3:00 PM64 °FPassing clouds.13 mph68%29.80 "HgN/A
2:00 PM64 °FScattered clouds.14 mph68%29.83 "HgN/A
Weather by CustomWeather, © 2014

See weather overviewHow to use our weather pages